• Em Portugal
  • Lista de países
  • Para 7 dias
  • Temperatura da água
  • Mapas de satélite
  • Mapa do tempo
  • Widgets de tempo
  • user-avatar
    Iniciar Sessão

    Previsão horária em Sur

    Hoje, 19 Fevereiro, Segunda-feira

    Tempo Temperatura Precipitação Vento Pressão Humidade
    00:00 +12°C° 0 mm 4 m/s 761 mmHg 90%
    01:00 +12°C° 0 mm 3 m/s 761 mmHg 91%
    02:00 +12°C° 0 mm 3 m/s 761 mmHg 91%
    03:00 +12°C° 0 mm 3 m/s 761 mmHg 91%
    04:00 +13°C° 0 mm 2 m/s 761 mmHg 91%
    05:00 +13°C° 0 mm 2 m/s 761 mmHg 91%
    06:00 +13°C° 0 mm 3 m/s 762 mmHg 88%
    07:00 +13°C° 0 mm 3 m/s 762 mmHg 85%
    08:00 +14°C° 0 mm 4 m/s 762 mmHg 82%
    09:00 +15°C° 0 mm 4 m/s 762 mmHg 78%
    10:00 +17°C° 0 mm 4 m/s 762 mmHg 74%
    11:00 +18°C° 0 mm 4 m/s 762 mmHg 71%
    12:00 +18°C° 0 mm 4 m/s 762 mmHg 69%
    13:00 +19°C° 0 mm 4 m/s 762 mmHg 68%
    14:00 +19°C° 0 mm 4 m/s 762 mmHg 66%
    15:00 +18°C° 0 mm 3 m/s 762 mmHg 71%
    16:00 +18°C° 0 mm 3 m/s 762 mmHg 75%
    17:00 +17°C° 0 mm 3 m/s 762 mmHg 79%
    18:00 +16°C° 0 mm 2 m/s 762 mmHg 82%
    19:00 +15°C° 0 mm 2 m/s 762 mmHg 86%
    20:00 +14°C° 0 mm 1 m/s 762 mmHg 89%
    21:00 +14°C° 0 mm 1 m/s 762 mmHg 88%
    22:00 +14°C° 0 mm 1 m/s 762 mmHg 86%
    23:00 +14°C° 0 mm 1 m/s 762 mmHg 85%

    Amanhã, 20 Fevereiro, Terça-feira

    Tempo Temperatura Precipitação Vento Pressão Humidade
    00:00 +14°C° 0 mm 1 m/s 761 mmHg 84%
    01:00 +13°C° 0 mm 1 m/s 761 mmHg 83%
    02:00 +13°C° 0 mm 1 m/s 761 mmHg 82%
    03:00 +12°C° 0 mm 1 m/s 761 mmHg 79%
    04:00 +12°C° 0 mm 1 m/s 761 mmHg 75%
    05:00 +12°C° 0 mm 1 m/s 761 mmHg 72%
    06:00 +13°C° 0 mm 1 m/s 761 mmHg 68%
    07:00 +15°C° 0 mm 1 m/s 761 mmHg 63%
    08:00 +16°C° 0 mm 1 m/s 761 mmHg 59%
    09:00 +18°C° 0 mm 1 m/s 761 mmHg 54%
    10:00 +20°C° 0 mm 1 m/s 761 mmHg 48%
    11:00 +21°C° 0 mm 1 m/s 760 mmHg 43%
    12:00 +20°C° 0 mm 2 m/s 760 mmHg 43%
    13:00 +21°C° 0 mm 2 m/s 759 mmHg 44%
    14:00 +21°C° 0 mm 2 m/s 759 mmHg 45%
    15:00 +20°C° 0 mm 3 m/s 759 mmHg 53%
    16:00 +19°C° 0 mm 3 m/s 758 mmHg 60%
    17:00 +18°C° 0 mm 3 m/s 758 mmHg 68%
    18:00 +17°C° 0 mm 3 m/s 758 mmHg 70%
    19:00 +16°C° 0 mm 3 m/s 758 mmHg 73%
    20:00 +14°C° 0 mm 3 m/s 758 mmHg 75%
    21:00 +14°C° 0 mm 3 m/s 758 mmHg 74%
    22:00 +13°C° 0 mm 3 m/s 758 mmHg 74%
    23:00 +13°C° 0 mm 3 m/s 758 mmHg 73%

    Depois de amanhã, 21 Fevereiro, Quarta-feira

    Tempo Temperatura Precipitação Vento Pressão Humidade
    00:00 +14°C° 0 mm 2 m/s 758 mmHg 74%
    01:00 +14°C° 0 mm 2 m/s 758 mmHg 74%
    02:00 +13°C° 0 mm 2 m/s 757 mmHg 75%
    03:00 +13°C° 0 mm 2 m/s 757 mmHg 75%
    04:00 +13°C° 0 mm 2 m/s 757 mmHg 75%
    05:00 +12°C° 0 mm 1 m/s 757 mmHg 76%
    06:00 +14°C° 0 mm 1 m/s 757 mmHg 71%
    07:00 +15°C° 0 mm 1 m/s 758 mmHg 67%
    08:00 +18°C° 0 mm 1 m/s 758 mmHg 63%
    09:00 +19°C° 0 mm 1 m/s 758 mmHg 60%
    10:00 +19°C° 0 mm 2 m/s 758 mmHg 57%
    11:00 +20°C° 0 mm 2 m/s 758 mmHg 54%
    12:00 +20°C° 0 mm 2 m/s 758 mmHg 56%
    13:00 +20°C° 0 mm 2 m/s 757 mmHg 58%
    14:00 +20°C° 0 mm 2 m/s 757 mmHg 60%
    15:00 +19°C° 0,1 mm 2 m/s 757 mmHg 66%
    16:00 +18°C° 0,1 mm 2 m/s 757 mmHg 72%
    17:00 +18°C° 0,1 mm 1 m/s 757 mmHg 78%
    18:00 +18°C° 0 mm 1 m/s 757 mmHg 81%
    19:00 +16°C° 0 mm 1 m/s 757 mmHg 83%
    20:00 +15°C° 0 mm 1 m/s 758 mmHg 86%
    21:00 +15°C° 0 mm 1 m/s 758 mmHg 83%
    22:00 +15°C° 0 mm 1 m/s 758 mmHg 79%
    23:00 +15°C° 0 mm 1 m/s 758 mmHg 76%

    22 Fevereiro, Quinta-feira

    Tempo Temperatura Precipitação Vento Pressão Humidade
    00:00 +15°C° 0 mm 1 m/s 758 mmHg 74%
    01:00 +15°C° 0 mm 1 m/s 758 mmHg 72%
    02:00 +15°C° 0 mm 2 m/s 757 mmHg 70%
    03:00 +15°C° 0,1 mm 2 m/s 757 mmHg 69%
    04:00 +14°C° 0,1 mm 3 m/s 758 mmHg 69%
    05:00 +13°C° 0,1 mm 3 m/s 758 mmHg 68%
    06:00 +14°C° 0,1 mm 3 m/s 758 mmHg 69%
    07:00 +14°C° 0,1 mm 3 m/s 758 mmHg 70%
    08:00 +14°C° 0,1 mm 3 m/s 758 mmHg 70%
    09:00 +17°C° 0,2 mm 3 m/s 758 mmHg 65%
    10:00 +18°C° 0,2 mm 2 m/s 758 mmHg 60%
    11:00 +19°C° 0,2 mm 2 m/s 758 mmHg 55%
    12:00 +19°C° 0 mm 2 m/s 757 mmHg 54%
    13:00 +20°C° 0 mm 2 m/s 757 mmHg 54%
    14:00 +22°C° 0 mm 1 m/s 756 mmHg 53%
    15:00 +20°C° 0 mm 2 m/s 756 mmHg 59%
    16:00 +19°C° 0 mm 3 m/s 756 mmHg 65%
    17:00 +18°C° 0 mm 3 m/s 756 mmHg 71%
    18:00 +17°C° 0 mm 3 m/s 756 mmHg 73%
    19:00 +16°C° 0 mm 3 m/s 757 mmHg 76%
    20:00 +14°C° 0 mm 3 m/s 757 mmHg 79%
    21:00 +14°C° 0 mm 3 m/s 757 mmHg 78%
    22:00 +14°C° 0 mm 3 m/s 757 mmHg 77%
    23:00 +15°C° 0 mm 2 m/s 756 mmHg 76%

    23 Fevereiro, Sexta-feira

    Tempo Temperatura Precipitação Vento Pressão Humidade
    00:00 +15°C° 0 mm 2 m/s 756 mmHg 75%
    01:00 +14°C° 0 mm 2 m/s 756 mmHg 74%
    02:00 +14°C° 0 mm 2 m/s 756 mmHg 73%
    03:00 +14°C° 0 mm 2 m/s 756 mmHg 73%
    04:00 +14°C° 0 mm 1 m/s 756 mmHg 73%
    05:00 +14°C° 0 mm 1 m/s 756 mmHg 73%
    06:00 +15°C° 0,1 mm 1 m/s 757 mmHg 69%
    07:00 +16°C° 0,1 mm 1 m/s 757 mmHg 66%
    08:00 +18°C° 0,1 mm 1 m/s 757 mmHg 63%
    09:00 +18°C° 0,1 mm 2 m/s 757 mmHg 62%
    10:00 +19°C° 0,1 mm 3 m/s 757 mmHg 61%
    11:00 +20°C° 0,1 mm 3 m/s 757 mmHg 60%
    12:00 +20°C° 0,3 mm 3 m/s 757 mmHg 62%
    13:00 +20°C° 0,3 mm 4 m/s 757 mmHg 63%
    14:00 +20°C° 0,3 mm 4 m/s 757 mmHg 65%
    15:00 +19°C° 0,2 mm 4 m/s 757 mmHg 69%
    16:00 +18°C° 0,2 mm 4 m/s 757 mmHg 73%
    17:00 +17°C° 0,2 mm 4 m/s 758 mmHg 78%
    18:00 +15°C° 0,3 mm 4 m/s 758 mmHg 82%
    19:00 +14°C° 0,3 mm 4 m/s 759 mmHg 86%
    20:00 +13°C° 0,3 mm 4 m/s 759 mmHg 90%
    21:00 +13°C° 0,2 mm 3 m/s 759 mmHg 90%
    22:00 +13°C° 0,2 mm 3 m/s 759 mmHg 91%
    23:00 +13°C° 0,2 mm 3 m/s 760 mmHg 92%

    24 Fevereiro, Sábado

    Tempo Temperatura Precipitação Vento Pressão Humidade
    00:00 +12°C° 0,1 mm 3 m/s 760 mmHg 92%
    01:00 +13°C° 0,1 mm 2 m/s 760 mmHg 92%
    02:00 +13°C° 0,1 mm 2 m/s 760 mmHg 92%
    03:00 +13°C° 0,1 mm 2 m/s 760 mmHg 92%
    04:00 +13°C° 0,1 mm 2 m/s 760 mmHg 92%
    05:00 +13°C° 0,1 mm 2 m/s 760 mmHg 92%
    06:00 +14°C° 0 mm 1 m/s 761 mmHg 88%
    07:00 +15°C° 0 mm 1 m/s 761 mmHg 85%
    08:00 +16°C° 0 mm 1 m/s 761 mmHg 81%
    09:00 +18°C° 0 mm 1 m/s 761 mmHg 75%
    10:00 +18°C° 0 mm 2 m/s 761 mmHg 68%
    11:00 +19°C° 0 mm 2 m/s 761 mmHg 62%
    12:00 +20°C° 0 mm 3 m/s 761 mmHg 62%
    13:00 +20°C° 0 mm 3 m/s 761 mmHg 62%
    14:00 +20°C° 0 mm 3 m/s 761 mmHg 62%
    15:00 +19°C° 0 mm 3 m/s 761 mmHg 67%
    16:00 +18°C° 0 mm 3 m/s 761 mmHg 72%
    17:00 +18°C° 0 mm 2 m/s 761 mmHg 77%
    18:00 +16°C° 0 mm 2 m/s 761 mmHg 81%
    19:00 +15°C° 0 mm 1 m/s 761 mmHg 86%
    20:00 +14°C° 0 mm 1 m/s 761 mmHg 90%
    21:00 +14°C° 0 mm 1 m/s 761 mmHg 89%
    22:00 +13°C° 0 mm 1 m/s 761 mmHg 89%
    23:00 +13°C° 0 mm 1 m/s 761 mmHg 89%
    Mostrar mais